QFA983 YPDN-RPLL

Flight info

Callsign QFA983
Flight time N/A
Altitude 36000
Route OCTOB A461 AMN R590 COT B472 IOO TR14 KLO TR19 MINOR B473 LAIYA LAIYA1A
Aircraft A21N/M-SDE3FGHIRWY/LB1

Departure

Time 2026-04-23 06:06
Airport Darwin International Airport / RAAF Darwin (YPDN)

Arrival

Time N/A
Airport Ninoy Aquino International Airport (RPLL)
Time Latitude Longitude Altitude Speed Heading
2026-04-23 05:00 -12.40918 130.87831 88 ft 0 kts 19°
2026-04-23 05:53 -12.40919 130.87831 88 ft 0 kts 19°
2026-04-23 05:54 -12.40918 130.87831 87 ft 0 kts 19°
2026-04-23 05:55 -12.40931 130.87826 88 ft 2 kts 19°
2026-04-23 05:55 -12.40945 130.87822 88 ft 2 kts 19°
2026-04-23 05:55 -12.40960 130.87819 88 ft 2 kts 343°
2026-04-23 05:55 -12.40973 130.87826 88 ft 2 kts 309°
2026-04-23 05:56 -12.40981 130.87840 88 ft 2 kts 291°
2026-04-23 05:56 -12.40985 130.87854 88 ft 2 kts 285°
2026-04-23 05:56 -12.40990 130.87869 89 ft 2 kts 288°
2026-04-23 05:56 -12.40992 130.87878 89 ft 0 kts 287°
2026-04-23 06:00 -12.40992 130.87875 89 ft 0 kts 287°
2026-04-23 06:00 -12.40989 130.87866 89 ft 2 kts 287°
2026-04-23 06:00 -12.40981 130.87839 89 ft 6 kts 285°
2026-04-23 06:01 -12.40969 130.87772 90 ft 12 kts 277°
2026-04-23 06:01 -12.40957 130.87691 90 ft 9 kts 278°
2026-04-23 06:01 -12.40976 130.87624 90 ft 10 kts 228°
2026-04-23 06:01 -12.41039 130.87589 91 ft 10 kts 200°
2026-04-23 06:02 -12.41100 130.87567 94 ft 8 kts 199°
2026-04-23 06:02 -12.41156 130.87547 97 ft 7 kts 199°
2026-04-23 06:02 -12.41190 130.87535 100 ft 3 kts 199°
2026-04-23 06:02 -12.41223 130.87524 102 ft 6 kts 199°
2026-04-23 06:03 -12.41265 130.87488 104 ft 7 kts 266°
2026-04-23 06:03 -12.41246 130.87428 106 ft 11 kts 290°
2026-04-23 06:03 -12.41213 130.87338 108 ft 16 kts 290°
2026-04-23 06:03 -12.41166 130.87203 110 ft 23 kts 290°
2026-04-23 06:04 -12.41102 130.87030 111 ft 28 kts 289°
2026-04-23 06:04 -12.41042 130.86842 110 ft 27 kts 288°
2026-04-23 06:04 -12.40991 130.86656 107 ft 27 kts 271°
2026-04-23 06:04 -12.40990 130.86540 107 ft 7 kts 311°
2026-04-23 06:05 -12.40951 130.86551 107 ft 7 kts 83°
2026-04-23 06:05 -12.40970 130.86614 107 ft 15 kts 110°
2026-04-23 06:05 -12.41063 130.86890 111 ft 74 kts 108°
2026-04-23 06:05 -12.41301 130.87595 103 ft 133 kts 108°
2026-04-23 06:06 -12.41651 130.88647 211 ft 169 kts 108°
2026-04-23 06:06 -12.42009 130.89714 919 ft 157 kts 108°
2026-04-23 06:06 -12.42363 130.90788 1481 ft 162 kts 107°
2026-04-23 06:06 -12.42711 130.91888 2052 ft 165 kts 106°
2026-04-23 06:07 -12.43061 130.93021 2500 ft 175 kts 107°
2026-04-23 06:07 -12.43447 130.94238 2929 ft 186 kts 106°
2026-04-23 06:07 -12.43843 130.95519 3404 ft 196 kts 108°
2026-04-23 06:07 -12.44323 130.96876 3811 ft 211 kts 109°
2026-04-23 06:08 -12.44859 130.98354 4138 ft 233 kts 109°
2026-04-23 06:08 -12.45282 131.00011 4566 ft 248 kts 91°
2026-04-23 06:08 -12.44949 131.01741 5195 ft 257 kts 68°
2026-04-23 06:08 -12.43903 131.03236 5917 ft 264 kts 44°
2026-04-23 06:09 -12.42281 131.04153 6612 ft 275 kts 18°
2026-04-23 06:09 -12.40366 131.04314 7332 ft 281 kts
2026-04-23 06:09 -12.38393 131.04272 7939 ft 286 kts
2026-04-23 06:09 -12.36372 131.04192 8535 ft 292 kts 359°
2026-04-23 06:10 -12.34333 131.04102 9217 ft 294 kts 359°
2026-04-23 06:10 -12.32298 131.03941 9876 ft 296 kts 348°
2026-04-23 06:10 -12.30418 131.03108 10476 ft 301 kts 326°
2026-04-23 06:10 -12.28889 131.01625 11036 ft 306 kts 309°
2026-04-23 06:11 -12.27773 130.99768 11579 ft 311 kts 295°
2026-04-23 06:11 -12.26996 130.97638 11874 ft 325 kts 289°
2026-04-23 06:11 -12.26300 130.95415 12287 ft 334 kts 288°
2026-04-23 06:11 -12.25589 130.93159 12840 ft 336 kts 289°
2026-04-23 06:12 -12.24845 130.90877 13396 ft 338 kts 289°
2026-04-23 06:12 -12.24085 130.88596 13922 ft 342 kts 289°
2026-04-23 06:12 -12.21863 130.84346 14810 ft 347 kts 321°
2026-04-23 06:13 -12.19764 130.83153 15283 ft 346 kts 342°
2026-04-23 06:13 -12.17466 130.82436 15755 ft 349 kts 345°
2026-04-23 06:13 -12.15113 130.81717 16186 ft 353 kts 345°
2026-04-23 06:13 -12.12740 130.80980 16630 ft 356 kts 345°
2026-04-23 06:14 -12.10356 130.80225 17063 ft 359 kts 344°
2026-04-23 06:14 -12.07986 130.79468 17484 ft 362 kts 344°
2026-04-23 06:14 -12.05541 130.78680 17900 ft 365 kts 344°
2026-04-23 06:14 -12.03114 130.77898 18303 ft 368 kts 344°
2026-04-23 06:15 -12.00687 130.77113 18702 ft 370 kts 344°
2026-04-23 06:15 -11.98206 130.76309 19098 ft 373 kts 344°
2026-04-23 06:15 -11.95711 130.75502 19483 ft 376 kts 344°
2026-04-23 06:15 -11.93183 130.74684 19862 ft 378 kts 344°
2026-04-23 06:16 -11.90666 130.73871 20232 ft 381 kts 344°
2026-04-23 06:16 -11.88122 130.73048 20591 ft 384 kts 344°
2026-04-23 06:16 -11.85570 130.72224 20931 ft 387 kts 344°
2026-04-23 06:16 -11.82991 130.71393 21285 ft 389 kts 344°
2026-04-23 06:17 -11.80380 130.70550 21639 ft 391 kts 344°
2026-04-23 06:17 -11.77782 130.69711 21979 ft 394 kts 343°
2026-04-23 06:17 -11.75161 130.68864 22322 ft 396 kts 344°
2026-04-23 06:17 -11.72521 130.68013 22658 ft 398 kts 343°
2026-04-23 06:18 -11.69865 130.67154 22994 ft 400 kts 343°
2026-04-23 06:18 -11.67216 130.66299 23340 ft 401 kts 343°
2026-04-23 06:18 -11.64537 130.65434 23693 ft 402 kts 343°
2026-04-23 06:18 -11.61886 130.64577 24031 ft 404 kts 344°
2026-04-23 06:19 -11.59182 130.63704 24361 ft 406 kts 344°
2026-04-23 06:19 -11.56474 130.62831 24691 ft 407 kts 344°
2026-04-23 06:19 -11.53777 130.61963 25028 ft 408 kts 343°
2026-04-23 06:19 -11.51042 130.61083 25358 ft 409 kts 343°
2026-04-23 06:20 -11.48347 130.60213 25665 ft 411 kts 343°
2026-04-23 06:20 -11.45578 130.59320 25966 ft 413 kts 343°
2026-04-23 06:20 -11.42839 130.58435 26268 ft 414 kts 343°
2026-04-23 06:20 -11.40095 130.57553 26571 ft 415 kts 343°
2026-04-23 06:21 -11.37340 130.56663 26873 ft 416 kts 343°
2026-04-23 06:21 -11.34554 130.55765 27170 ft 418 kts 343°
2026-04-23 06:21 -11.31785 130.54875 27454 ft 419 kts 343°
2026-04-23 06:21 -11.29005 130.53979 27745 ft 420 kts 343°
2026-04-23 06:22 -11.26172 130.53067 28035 ft 422 kts 343°
2026-04-23 06:22 -11.23362 130.52162 28314 ft 423 kts 343°
2026-04-23 06:22 -11.20553 130.51259 28599 ft 425 kts 343°
2026-04-23 06:22 -11.17715 130.50345 28871 ft 426 kts 343°
2026-04-23 06:23 -11.14887 130.49437 29140 ft 428 kts 343°
2026-04-23 06:23 -11.12058 130.48528 29400 ft 430 kts 343°
2026-04-23 06:23 -11.09162 130.47598 29671 ft 431 kts 343°
2026-04-23 06:23 -11.06323 130.46687 29947 ft 432 kts 343°
2026-04-23 06:24 -11.03441 130.45764 30228 ft 433 kts 343°
2026-04-23 06:24 -11.00540 130.44832 30500 ft 435 kts 343°
2026-04-23 06:24 -10.97643 130.43903 30768 ft 436 kts 343°
2026-04-23 06:24 -10.94764 130.42978 31035 ft 436 kts 343°
2026-04-23 06:25 -10.91876 130.42049 31301 ft 437 kts 343°
2026-04-23 06:25 -10.88960 130.41115 31538 ft 439 kts 343°
2026-04-23 06:25 -10.86002 130.40166 31791 ft 440 kts 343°
2026-04-23 06:25 -10.83067 130.39224 32051 ft 441 kts 343°
2026-04-23 06:26 -10.80146 130.38287 32308 ft 441 kts 343°
2026-04-23 06:26 -10.77186 130.37338 32593 ft 442 kts 343°
2026-04-23 06:26 -10.74260 130.36401 32869 ft 443 kts 343°
2026-04-23 06:26 -10.71312 130.35457 33117 ft 444 kts 343°
2026-04-23 06:27 -10.68345 130.34505 33391 ft 445 kts 343°
2026-04-23 06:27 -10.65402 130.33562 33755 ft 444 kts 343°
2026-04-23 06:27 -10.62468 130.32622 34190 ft 441 kts 343°
2026-04-23 06:27 -10.59516 130.31677 34588 ft 440 kts 343°
2026-04-23 06:28 -10.56612 130.30747 34894 ft 439 kts 343°
2026-04-23 06:28 -10.53705 130.29816 35190 ft 439 kts 343°
2026-04-23 06:28 -10.50761 130.28874 35468 ft 439 kts 343°
2026-04-23 06:28 -10.47859 130.27945 35678 ft 441 kts 343°
2026-04-23 06:29 -10.44907 130.27000 35829 ft 442 kts 343°
2026-04-23 06:29 -10.41975 130.26062 35829 ft 442 kts 343°
2026-04-23 06:29 -10.36086 130.24178 35832 ft 441 kts 343°
2026-04-23 06:30 -10.30249 130.22311 35832 ft 440 kts 343°
2026-04-23 06:30 -10.24391 130.20439 35835 ft 440 kts 343°
2026-04-23 06:31 -10.18538 130.18570 35833 ft 439 kts 343°
2026-04-23 06:31 -10.12723 130.16713 35834 ft 439 kts 343°
2026-04-23 06:32 -10.06889 130.14851 35834 ft 439 kts 344°
2026-04-23 06:32 -10.01054 130.12988 35832 ft 439 kts 344°
2026-04-23 06:33 -9.95232 130.11131 35831 ft 439 kts 344°
2026-04-23 06:33 -9.89385 130.09268 35831 ft 439 kts 344°
2026-04-23 06:34 -9.83513 130.07397 35831 ft 439 kts 344°
2026-04-23 06:34 -9.77666 130.05533 35828 ft 441 kts 344°
2026-04-23 06:35 -9.71793 130.03664 35831 ft 443 kts 345°
2026-04-23 06:35 -9.65911 130.01790 35832 ft 444 kts 345°
2026-04-23 06:36 -9.59953 129.99893 35831 ft 446 kts 345°
2026-04-23 06:36 -9.54020 129.98006 35829 ft 448 kts 345°
2026-04-23 06:37 -9.48048 129.96104 35824 ft 449 kts 345°
2026-04-23 06:37 -9.42092 129.94211 35820 ft 451 kts 344°
2026-04-23 06:38 -9.36072 129.92300 35819 ft 453 kts 344°
2026-04-23 06:38 -9.30009 129.90378 35817 ft 455 kts 345°
2026-04-23 06:39 -9.23963 129.88460 35807 ft 456 kts 344°
2026-04-23 06:39 -9.17902 129.86537 35812 ft 457 kts 344°
2026-04-23 06:40 -9.11822 129.84605 35811 ft 457 kts 344°
2026-04-23 06:40 -9.05807 129.82697 35816 ft 458 kts 344°
2026-04-23 06:41 -8.99731 129.80769 35807 ft 458 kts 343°
2026-04-23 06:41 -8.93601 129.78828 35812 ft 460 kts 344°
2026-04-23 06:42 -8.87510 129.76903 35810 ft 460 kts 344°
2026-04-23 06:42 -8.81343 129.74947 35812 ft 460 kts 344°
2026-04-23 06:43 -8.75231 129.73009 35812 ft 461 kts 344°
2026-04-23 06:43 -8.69109 129.71068 35806 ft 460 kts 344°
2026-04-23 06:44 -8.62982 129.69128 35809 ft 461 kts 344°
2026-04-23 06:44 -8.56833 129.67183 35811 ft 461 kts 344°
2026-04-23 06:45 -8.50732 129.65289 35811 ft 461 kts 345°
2026-04-23 06:45 -8.44556 129.63428 35811 ft 462 kts 345°
2026-04-23 06:46 -8.38387 129.61566 35811 ft 462 kts 345°
2026-04-23 06:46 -8.32215 129.59700 35811 ft 462 kts 345°
2026-04-23 06:47 -8.26032 129.57828 35810 ft 462 kts 345°
2026-04-23 06:47 -8.19857 129.55960 35814 ft 462 kts 345°
2026-04-23 06:48 -8.13706 129.54100 35821 ft 463 kts 345°
2026-04-23 06:48 -8.07500 129.52223 35823 ft 464 kts 345°
2026-04-23 06:49 -8.01321 129.50357 35824 ft 464 kts 345°
2026-04-23 06:49 -7.95121 129.48482 35823 ft 464 kts 345°
2026-04-23 06:50 -7.88894 129.46602 35821 ft 465 kts 345°
2026-04-23 06:50 -7.82722 129.44737 35818 ft 465 kts 345°
2026-04-23 06:51 -7.76473 129.42851 35817 ft 465 kts 345°
2026-04-23 06:51 -7.70300 129.40988 35815 ft 465 kts 345°
2026-04-23 06:52 -7.64088 129.39113 35811 ft 466 kts 345°
2026-04-23 06:52 -7.57833 129.37225 35808 ft 466 kts 345°
2026-04-23 06:53 -7.51635 129.35355 35806 ft 467 kts 345°
2026-04-23 06:53 -7.45377 129.33470 35804 ft 467 kts 345°
2026-04-23 06:54 -7.39136 129.31590 35806 ft 467 kts 345°
2026-04-23 06:54 -7.32883 129.29706 35807 ft 467 kts 345°
2026-04-23 06:55 -7.26663 129.27830 35810 ft 468 kts 345°
2026-04-23 06:55 -7.20413 129.25949 35811 ft 468 kts 345°
2026-04-23 06:56 -7.14182 129.24074 35810 ft 468 kts 345°
2026-04-23 06:56 -7.07888 129.22177 35810 ft 468 kts 345°
2026-04-23 06:57 -7.01638 129.20297 35810 ft 467 kts 345°
2026-04-23 06:57 -6.95388 129.18417 35810 ft 468 kts 345°
2026-04-23 06:58 -6.89166 129.16548 35810 ft 469 kts 345°
2026-04-23 06:58 -6.82896 129.14662 35810 ft 470 kts 345°
2026-04-23 06:59 -6.76577 129.12762 35811 ft 470 kts 345°
2026-04-23 06:59 -6.70325 129.10884 35811 ft 470 kts 345°
2026-04-23 07:00 -6.64021 129.08990 35811 ft 470 kts 345°
2026-04-23 07:00 -6.57745 129.07106 35811 ft 471 kts 345°
2026-04-23 07:01 -6.51472 129.05223 35811 ft 471 kts 345°
2026-04-23 07:01 -6.45140 129.03320 35812 ft 472 kts 345°
2026-04-23 07:02 -6.38833 129.01428 35810 ft 472 kts 345°
2026-04-23 07:02 -6.32521 128.99535 35812 ft 472 kts 345°
2026-04-23 07:03 -6.26241 128.97652 35811 ft 473 kts 345°
2026-04-23 07:03 -6.19906 128.95754 35810 ft 472 kts 345°
2026-04-23 07:04 -6.13605 128.93863 35810 ft 472 kts 345°
2026-04-23 07:04 -6.07286 128.91968 35803 ft 473 kts 345°
2026-04-23 07:05 -6.00948 128.90070 35793 ft 474 kts 345°
2026-04-23 07:05 -5.94616 128.88173 35789 ft 474 kts 345°
2026-04-23 07:06 -5.88288 128.86278 35789 ft 474 kts 345°
2026-04-23 07:06 -5.81944 128.84378 35789 ft 474 kts 345°
2026-04-23 07:07 -5.75639 128.82491 35789 ft 474 kts 345°
2026-04-23 07:07 -5.69274 128.80585 35790 ft 474 kts 345°
2026-04-23 07:08 -5.62965 128.78699 35792 ft 474 kts 345°
2026-04-23 07:08 -5.56635 128.76805 35795 ft 474 kts 345°
2026-04-23 07:09 -5.50284 128.74905 35802 ft 474 kts 345°
2026-04-23 07:09 -5.43942 128.73010 35801 ft 475 kts 345°
2026-04-23 07:10 -5.37570 128.71104 35802 ft 475 kts 345°
2026-04-23 07:10 -5.31207 128.69203 35805 ft 475 kts 345°
2026-04-23 07:11 -5.24864 128.67308 35809 ft 475 kts 345°
2026-04-23 07:12 -5.15355 128.64467 35811 ft 475 kts 345°
2026-04-23 07:12 -5.09033 128.62579 35811 ft 475 kts 345°
2026-04-23 07:13 -5.02677 128.60681 35811 ft 475 kts 345°
2026-04-23 07:13 -4.96341 128.58789 35810 ft 475 kts 345°
2026-04-23 07:14 -4.89978 128.56891 35811 ft 475 kts 345°
2026-04-23 07:14 -4.83633 128.54997 35811 ft 475 kts 345°
2026-04-23 07:15 -4.77306 128.53110 35811 ft 474 kts 345°
2026-04-23 07:15 -4.70927 128.51207 35811 ft 475 kts 345°
2026-04-23 07:16 -4.64602 128.49319 35811 ft 474 kts 345°
2026-04-23 07:16 -4.58256 128.47429 35811 ft 474 kts 345°
2026-04-23 07:17 -4.51911 128.45537 35811 ft 474 kts 345°
2026-04-23 07:17 -4.45588 128.43652 35807 ft 474 kts 345°
2026-04-23 07:18 -4.39278 128.41771 35798 ft 474 kts 345°
2026-04-23 07:18 -4.32926 128.39879 35791 ft 474 kts 345°
2026-04-23 07:19 -4.26594 128.37991 35791 ft 475 kts 345°
2026-04-23 07:19 -4.20226 128.36095 35790 ft 474 kts 345°
2026-04-23 07:20 -4.13903 128.34212 35789 ft 474 kts 345°
2026-04-23 07:20 -4.07589 128.32332 35790 ft 473 kts 345°
2026-04-23 07:21 -4.01251 128.30444 35791 ft 472 kts 345°
2026-04-23 07:21 -3.94961 128.28572 35791 ft 473 kts 345°
2026-04-23 07:22 -3.88629 128.26688 35790 ft 474 kts 345°
2026-04-23 07:22 -3.82301 128.24803 35792 ft 474 kts 345°
2026-04-23 07:23 -3.75973 128.22920 35795 ft 473 kts 345°
2026-04-23 07:23 -3.69611 128.21025 35798 ft 473 kts 345°
2026-04-23 07:24 -3.63307 128.19145 35807 ft 473 kts 344°
2026-04-23 07:24 -3.57075 128.16919 35814 ft 473 kts 340°
2026-04-23 07:25 -3.50953 128.14540 35817 ft 473 kts 340°
2026-04-23 07:25 -3.44782 128.12137 35822 ft 474 kts 340°
2026-04-23 07:26 -3.38630 128.09747 35831 ft 474 kts 340°
2026-04-23 07:26 -3.32588 128.07400 35848 ft 474 kts 340°
2026-04-23 07:27 -3.26426 128.05006 35865 ft 474 kts 340°
2026-04-23 07:27 -3.20267 128.02615 35876 ft 474 kts 340°
2026-04-23 07:28 -3.14096 128.00221 35869 ft 473 kts 340°
2026-04-23 07:28 -3.07960 127.97840 35850 ft 473 kts 340°
2026-04-23 07:29 -3.01809 127.95454 35829 ft 473 kts 340°
2026-04-23 07:29 -2.95674 127.93075 35815 ft 473 kts 340°
2026-04-23 07:30 -2.89543 127.90695 35810 ft 473 kts 340°
2026-04-23 07:30 -2.83385 127.88306 35807 ft 473 kts 340°
2026-04-23 07:31 -2.77199 127.85907 35807 ft 473 kts 340°
2026-04-23 07:31 -2.71060 127.83527 35802 ft 473 kts 340°
2026-04-23 07:32 -2.64936 127.81152 35796 ft 473 kts 340°
2026-04-23 07:32 -2.58787 127.78769 35792 ft 473 kts 340°
2026-04-23 07:33 -2.52630 127.76382 35791 ft 473 kts 340°
2026-04-23 07:33 -2.46502 127.74006 35790 ft 473 kts 340°
2026-04-23 07:34 -2.40322 127.71611 35792 ft 473 kts 340°
2026-04-23 07:34 -2.34198 127.69238 35794 ft 473 kts 340°
2026-04-23 07:35 -2.28031 127.66848 35796 ft 473 kts 340°
2026-04-23 07:35 -2.21919 127.64480 35798 ft 473 kts 340°
2026-04-23 07:36 -2.15742 127.62086 35804 ft 473 kts 340°
2026-04-23 07:36 -2.09603 127.59708 35809 ft 473 kts 340°
2026-04-23 07:37 -2.03471 127.57333 35811 ft 472 kts 340°
2026-04-23 07:37 -1.97331 127.54954 35812 ft 472 kts 340°
2026-04-23 07:38 -1.91193 127.52577 35811 ft 472 kts 340°
2026-04-23 07:38 -1.85043 127.50196 35813 ft 472 kts 340°
2026-04-23 07:39 -1.78911 127.47821 35812 ft 472 kts 340°
2026-04-23 07:39 -1.72762 127.45440 35815 ft 473 kts 340°
2026-04-23 07:40 -1.66611 127.43059 35826 ft 472 kts 340°
2026-04-23 07:40 -1.60469 127.40681 35835 ft 472 kts 340°
2026-04-23 07:41 -1.54363 127.38317 35840 ft 472 kts 340°
2026-04-23 07:41 -1.48202 127.35931 35843 ft 472 kts 340°
2026-04-23 07:42 -1.42090 127.33566 35829 ft 471 kts 340°
2026-04-23 07:42 -1.35946 127.31187 35818 ft 472 kts 340°
2026-04-23 07:43 -1.29817 127.28816 35805 ft 471 kts 340°
2026-04-23 07:43 -1.23696 127.26447 35800 ft 471 kts 340°
2026-04-23 07:44 -1.17551 127.24069 35795 ft 471 kts 340°
2026-04-23 07:44 -1.11464 127.21713 35795 ft 472 kts 340°
2026-04-23 07:45 -1.05329 127.19339 35793 ft 471 kts 340°
2026-04-23 07:45 -0.99182 127.16960 35791 ft 471 kts 340°
2026-04-23 07:46 -0.93067 127.14593 35791 ft 471 kts 340°
2026-04-23 07:46 -0.86938 127.12222 35794 ft 470 kts 340°
2026-04-23 07:47 -0.80815 127.09854 35796 ft 471 kts 340°
2026-04-23 07:47 -0.74711 127.07492 35798 ft 471 kts 340°
2026-04-23 07:48 -0.68580 127.05121 35799 ft 470 kts 340°
2026-04-23 07:48 -0.62491 127.02763 35804 ft 470 kts 340°
2026-04-23 07:49 -0.56344 127.00386 35805 ft 470 kts 340°
2026-04-23 07:49 -0.50224 126.98018 35808 ft 470 kts 340°
2026-04-23 07:50 -0.44135 126.95663 35808 ft 470 kts 340°
2026-04-23 07:50 -0.38003 126.93291 35808 ft 471 kts 340°
2026-04-23 07:51 -0.31893 126.90928 35810 ft 471 kts 340°
2026-04-23 07:51 -0.25741 126.88547 35808 ft 471 kts 340°
2026-04-23 07:52 -0.19642 126.86188 35811 ft 471 kts 340°
2026-04-23 07:52 -0.13504 126.83814 35810 ft 470 kts 340°
2026-04-23 07:53 -0.07392 126.81449 35811 ft 470 kts 340°
2026-04-23 07:53 -0.01293 126.79090 35808 ft 470 kts 340°
2026-04-23 07:54 0.04809 126.76730 35803 ft 470 kts 339°
2026-04-23 07:54 0.10902 126.74374 35796 ft 470 kts 339°
2026-04-23 07:55 0.17042 126.71997 35793 ft 470 kts 340°
2026-04-23 07:55 0.23148 126.69636 35792 ft 470 kts 339°
2026-04-23 07:56 0.29251 126.67275 35792 ft 469 kts 339°
2026-04-23 07:56 0.35350 126.64915 35792 ft 469 kts 339°
2026-04-23 07:57 0.41403 126.62574 35791 ft 468 kts 339°
2026-04-23 07:57 0.47518 126.60208 35792 ft 468 kts 339°
2026-04-23 07:58 0.53591 126.57858 35791 ft 469 kts 339°
2026-04-23 07:58 0.59723 126.55486 35791 ft 469 kts 339°
2026-04-23 07:59 0.65790 126.53139 35791 ft 468 kts 339°
2026-04-23 07:59 0.71887 126.50781 35794 ft 468 kts 339°
2026-04-23 08:00 0.77947 126.48435 35802 ft 468 kts 339°
2026-04-23 08:00 0.84051 126.46073 35809 ft 468 kts 339°
2026-04-23 08:01 0.90108 126.43729 35810 ft 468 kts 339°
2026-04-23 08:01 0.96210 126.41368 35810 ft 467 kts 339°
2026-04-23 08:02 1.02265 126.39027 35811 ft 467 kts 339°
2026-04-23 08:02 1.08337 126.36677 35810 ft 467 kts 339°
2026-04-23 08:03 1.14403 126.34328 35809 ft 467 kts 339°
2026-04-23 08:03 1.20489 126.31973 35810 ft 467 kts 339°
2026-04-23 08:04 1.26569 126.29619 35809 ft 467 kts 339°
2026-04-23 08:04 1.32634 126.27271 35808 ft 467 kts 339°
2026-04-23 08:05 1.38678 126.24931 35810 ft 466 kts 340°
2026-04-23 08:05 1.44758 126.22578 35808 ft 466 kts 340°
2026-04-23 08:06 1.50817 126.20233 35810 ft 465 kts 339°
2026-04-23 08:06 1.56844 126.17899 35809 ft 465 kts 339°
2026-04-23 08:07 1.62919 126.15547 35804 ft 466 kts 339°
2026-04-23 08:07 1.68960 126.13206 35801 ft 466 kts 339°
2026-04-23 08:08 1.75042 126.10850 35794 ft 466 kts 339°
2026-04-23 08:08 1.81084 126.08510 35789 ft 466 kts 339°
2026-04-23 08:09 1.87161 126.06155 35788 ft 466 kts 339°
2026-04-23 08:09 1.93187 126.03818 35788 ft 466 kts 339°
2026-04-23 08:10 1.99251 126.01472 35790 ft 465 kts 340°
2026-04-23 08:10 2.08473 125.98375 35790 ft 465 kts 342°
2026-04-23 08:11 2.14599 125.96361 35794 ft 464 kts 342°
2026-04-23 08:11 2.20755 125.94331 35800 ft 464 kts 342°
2026-04-23 08:12 2.26903 125.92301 35807 ft 464 kts 342°
2026-04-23 08:12 2.33028 125.90279 35811 ft 464 kts 342°
2026-04-23 08:13 2.39186 125.88245 35811 ft 463 kts 342°
2026-04-23 08:13 2.45324 125.86217 35810 ft 463 kts 342°
2026-04-23 08:14 2.51457 125.84188 35811 ft 463 kts 342°
2026-04-23 08:14 2.57592 125.82161 35810 ft 463 kts 342°
2026-04-23 08:15 2.63722 125.80134 35810 ft 462 kts 342°
2026-04-23 08:15 2.69840 125.78112 35810 ft 461 kts 342°
2026-04-23 08:16 2.75908 125.76105 35810 ft 462 kts 342°
2026-04-23 08:16 2.82038 125.74078 35810 ft 462 kts 342°
2026-04-23 08:17 2.88173 125.72050 35810 ft 462 kts 342°
2026-04-23 08:17 2.94266 125.70034 35811 ft 461 kts 342°
2026-04-23 08:18 3.00382 125.68012 35810 ft 460 kts 342°
2026-04-23 08:18 3.06451 125.66003 35810 ft 460 kts 342°
2026-04-23 08:19 3.12550 125.63985 35809 ft 461 kts 342°
2026-04-23 08:19 3.18655 125.61965 35810 ft 460 kts 342°
2026-04-23 08:20 3.24730 125.59953 35809 ft 460 kts 342°
2026-04-23 08:20 3.30836 125.57932 35812 ft 459 kts 342°
2026-04-23 08:21 3.36891 125.55929 35823 ft 459 kts 342°
2026-04-23 08:21 3.42967 125.53918 35839 ft 459 kts 342°
2026-04-23 08:22 3.49062 125.51900 35856 ft 459 kts 342°
2026-04-23 08:22 3.55145 125.49885 35864 ft 459 kts 342°
2026-04-23 08:23 3.61198 125.47878 35849 ft 458 kts 342°
2026-04-23 08:23 3.67243 125.45875 35831 ft 457 kts 342°
2026-04-23 08:24 3.73295 125.43870 35816 ft 457 kts 342°
2026-04-23 08:24 3.79368 125.41856 35808 ft 457 kts 342°
2026-04-23 08:25 3.85399 125.39857 35810 ft 457 kts 342°
2026-04-23 08:25 3.91468 125.37843 35812 ft 457 kts 342°
2026-04-23 08:26 3.97486 125.35846 35812 ft 456 kts 342°
2026-04-23 08:26 4.03510 125.33791 35812 ft 456 kts 341°
2026-04-23 08:27 4.09499 125.31635 35812 ft 457 kts 341°
2026-04-23 08:27 4.15486 125.29477 35812 ft 456 kts 341°
2026-04-23 08:28 4.21496 125.27317 35813 ft 456 kts 341°
2026-04-23 08:28 4.27461 125.25176 35812 ft 456 kts 341°
2026-04-23 08:29 4.33469 125.23020 35812 ft 456 kts 341°
2026-04-23 08:29 4.39449 125.20874 35813 ft 456 kts 341°
2026-04-23 08:30 4.45409 125.18734 35812 ft 456 kts 341°
2026-04-23 08:30 4.51409 125.16579 35813 ft 456 kts 341°
2026-04-23 08:31 4.57398 125.14428 35813 ft 456 kts 341°
2026-04-23 08:31 4.63363 125.12286 35808 ft 456 kts 341°
2026-04-23 08:32 4.69339 125.10140 35802 ft 456 kts 341°
2026-04-23 08:32 4.74261 125.08372 35800 ft 456 kts 341°
2026-04-23 08:33 4.78744 125.06761 35797 ft 455 kts 341°
2026-04-23 08:33 4.84738 125.04606 35795 ft 455 kts 341°
2026-04-23 08:34 4.90689 125.02467 35795 ft 456 kts 341°
2026-04-23 08:34 4.96698 125.00306 35793 ft 456 kts 341°
2026-04-23 08:35 5.02677 124.98156 35793 ft 456 kts 341°
2026-04-23 08:35 5.08655 124.96005 35796 ft 456 kts 341°
2026-04-23 08:36 5.14674 124.93842 35797 ft 456 kts 341°
2026-04-23 08:36 5.20633 124.91696 35796 ft 456 kts 341°
2026-04-23 08:37 5.26624 124.89540 35795 ft 457 kts 341°
2026-04-23 08:37 5.32636 124.87376 35797 ft 457 kts 341°
2026-04-23 08:38 5.38662 124.85207 35797 ft 457 kts 341°
2026-04-23 08:38 5.44674 124.83041 35798 ft 458 kts 341°
2026-04-23 08:39 5.50695 124.80873 35800 ft 458 kts 341°
2026-04-23 08:39 5.56669 124.78719 35802 ft 458 kts 341°
2026-04-23 08:40 5.62675 124.76556 35802 ft 458 kts 341°
2026-04-23 08:40 5.68704 124.74381 35805 ft 458 kts 341°
2026-04-23 08:41 5.74712 124.72216 35815 ft 459 kts 341°
2026-04-23 08:41 5.80747 124.70039 35831 ft 459 kts 341°
2026-04-23 08:42 5.86747 124.67874 35845 ft 459 kts 341°
2026-04-23 08:42 5.92762 124.65704 35860 ft 459 kts 341°
2026-04-23 08:43 5.98794 124.63525 35865 ft 459 kts 341°
2026-04-23 08:43 6.04821 124.61348 35869 ft 459 kts 341°
2026-04-23 08:44 6.10853 124.59168 35877 ft 459 kts 341°
2026-04-23 08:44 6.16979 124.56953 35896 ft 459 kts 341°
2026-04-23 08:45 6.23010 124.54773 35915 ft 459 kts 341°
2026-04-23 08:45 6.28968 124.52631 35936 ft 458 kts 341°
2026-04-23 08:46 6.34786 124.50539 35938 ft 458 kts 341°
2026-04-23 08:46 6.40798 124.48374 35938 ft 458 kts 341°
2026-04-23 08:47 6.46832 124.46198 35944 ft 458 kts 341°
2026-04-23 08:47 6.52823 124.44038 35945 ft 458 kts 341°
2026-04-23 08:48 6.58906 124.41843 35922 ft 458 kts 341°
2026-04-23 08:48 6.64900 124.39679 35897 ft 457 kts 341°
2026-04-23 08:49 6.70896 124.37511 35871 ft 457 kts 341°
2026-04-23 08:49 6.76865 124.35357 35845 ft 456 kts 341°
2026-04-23 08:50 6.82894 124.33179 35836 ft 457 kts 341°
2026-04-23 08:50 6.88923 124.31000 35836 ft 457 kts 341°
2026-04-23 08:51 6.94921 124.28831 35837 ft 457 kts 340°
2026-04-23 08:51 7.00921 124.26659 35835 ft 457 kts 341°
2026-04-23 08:52 7.06990 124.24459 35835 ft 457 kts 341°
2026-04-23 08:52 7.11680 124.22761 35833 ft 456 kts 341°
2026-04-23 08:53 7.17650 124.20496 35821 ft 456 kts 337°
2026-04-23 08:53 7.23471 124.17846 35811 ft 456 kts 336°
2026-04-23 08:54 7.29256 124.15159 35810 ft 457 kts 335°
2026-04-23 08:54 7.35027 124.12479 35824 ft 457 kts 335°
2026-04-23 08:55 7.40810 124.09793 35836 ft 456 kts 336°
2026-04-23 08:55 7.46637 124.07089 35839 ft 456 kts 336°
2026-04-23 08:56 7.52403 124.04413 35847 ft 456 kts 336°
2026-04-23 08:56 7.58188 124.01726 35859 ft 456 kts 336°
2026-04-23 08:57 7.63961 123.99046 35881 ft 456 kts 336°
2026-04-23 08:57 7.69764 123.96351 35906 ft 456 kts 336°
2026-04-23 08:58 7.75560 123.93658 35915 ft 456 kts 335°
2026-04-23 08:58 7.81312 123.90984 35911 ft 457 kts 336°
2026-04-23 08:59 7.87155 123.88266 35907 ft 457 kts 336°
2026-04-23 08:59 7.92934 123.85579 35902 ft 457 kts 336°
2026-04-23 09:00 7.98716 123.82888 35887 ft 457 kts 336°
2026-04-23 09:00 8.04534 123.80182 35874 ft 457 kts 335°
2026-04-23 09:01 8.10304 123.77496 35876 ft 457 kts 335°
2026-04-23 09:01 8.16229 123.74737 35875 ft 457 kts 335°
2026-04-23 09:02 8.21784 123.72148 35889 ft 457 kts 335°
2026-04-23 09:02 8.27209 123.69620 35896 ft 457 kts 335°
2026-04-23 09:03 8.33049 123.66898 35895 ft 457 kts 335°
2026-04-23 09:03 8.38831 123.64203 35877 ft 457 kts 335°
2026-04-23 09:04 8.44678 123.61475 35868 ft 458 kts 335°
2026-04-23 09:04 8.50464 123.58775 35855 ft 457 kts 335°
2026-04-23 09:05 8.56271 123.56065 35840 ft 457 kts 335°
2026-04-23 09:05 8.62036 123.53371 35835 ft 457 kts 335°
2026-04-23 09:06 8.67855 123.50652 35830 ft 456 kts 335°
2026-04-23 09:06 8.73473 123.48026 35823 ft 456 kts 335°
2026-04-23 09:07 8.79251 123.45325 35817 ft 456 kts 335°
2026-04-23 09:07 8.84994 123.42638 35817 ft 456 kts 335°
2026-04-23 09:08 8.90779 123.39930 35817 ft 455 kts 335°
2026-04-23 09:08 8.96535 123.37234 35814 ft 455 kts 335°
2026-04-23 09:09 9.02299 123.34536 35808 ft 455 kts 335°
2026-04-23 09:09 9.07887 123.31916 35816 ft 455 kts 335°
2026-04-23 09:10 9.16499 123.27889 35828 ft 456 kts 335°
2026-04-23 09:11 9.22371 123.25145 35836 ft 456 kts 335°
2026-04-23 09:11 9.28099 123.22463 35842 ft 456 kts 334°
2026-04-23 09:12 9.33429 123.19963 35840 ft 455 kts 335°
2026-04-23 09:12 9.39204 123.17253 35842 ft 455 kts 335°
2026-04-23 09:13 9.44953 123.14558 35840 ft 455 kts 335°
2026-04-23 09:13 9.50735 123.11845 35847 ft 455 kts 334°
2026-04-23 09:14 9.56479 123.09148 35858 ft 456 kts 334°
2026-04-23 09:14 9.62268 123.06426 35875 ft 455 kts 334°
2026-04-23 09:15 9.67991 123.03734 35893 ft 455 kts 334°
2026-04-23 09:15 9.73766 123.01015 35915 ft 454 kts 334°
2026-04-23 09:16 9.79491 122.98321 35926 ft 454 kts 334°
2026-04-23 09:16 9.85251 122.95620 35923 ft 455 kts 334°
2026-04-23 09:17 9.90977 122.92931 35914 ft 455 kts 334°
2026-04-23 09:17 9.96783 122.90199 35901 ft 455 kts 334°
2026-04-23 09:18 10.02534 122.87490 35889 ft 455 kts 334°
2026-04-23 09:18 10.08271 122.84782 35872 ft 455 kts 334°
2026-04-23 09:19 10.14070 122.82046 35853 ft 455 kts 334°
2026-04-23 09:19 10.19870 122.79314 35838 ft 454 kts 334°
2026-04-23 09:20 10.25651 122.76592 35827 ft 454 kts 334°
2026-04-23 09:20 10.31387 122.73884 35823 ft 454 kts 334°
2026-04-23 09:21 10.37100 122.71185 35822 ft 454 kts 334°
2026-04-23 09:21 10.42835 122.68483 35821 ft 454 kts 334°
2026-04-23 09:22 10.48606 122.65763 35819 ft 454 kts 334°
2026-04-23 09:22 10.54351 122.63049 35820 ft 454 kts 334°
2026-04-23 09:23 10.60060 122.60349 35819 ft 453 kts 334°
2026-04-23 09:23 10.65767 122.57645 35818 ft 452 kts 334°
2026-04-23 09:24 10.71470 122.54942 35821 ft 452 kts 334°
2026-04-23 09:24 10.77191 122.52267 35824 ft 452 kts 335°
2026-04-23 09:25 10.83152 122.50066 35828 ft 453 kts 342°
2026-04-23 09:25 10.89319 122.48560 35835 ft 454 kts 348°
2026-04-23 09:26 10.95093 122.47726 35840 ft 455 kts 351°
2026-04-23 09:26 11.01445 122.46926 35849 ft 454 kts 351°
2026-04-23 09:27 11.07775 122.46122 35849 ft 453 kts 351°
2026-04-23 09:27 11.14053 122.45316 35849 ft 453 kts 351°
2026-04-23 09:28 11.20340 122.44509 35844 ft 453 kts 351°
2026-04-23 09:28 11.26552 122.43717 35839 ft 453 kts 351°
2026-04-23 09:29 11.32863 122.42910 35837 ft 453 kts 351°
2026-04-23 09:29 11.39122 122.42106 35839 ft 453 kts 351°
2026-04-23 09:30 11.45134 122.41334 35841 ft 452 kts 351°
2026-04-23 09:30 11.51454 122.40521 35842 ft 452 kts 351°
2026-04-23 09:31 11.57712 122.39713 35842 ft 452 kts 351°
2026-04-23 09:31 11.63995 122.38902 35837 ft 452 kts 351°
2026-04-23 09:32 11.70213 122.37942 35834 ft 451 kts 347°
2026-04-23 09:32 11.76388 122.36625 35830 ft 450 kts 346°
2026-04-23 09:33 11.82512 122.35289 35827 ft 450 kts 346°
2026-04-23 09:33 11.88712 122.33940 35824 ft 450 kts 346°
2026-04-23 09:34 11.94876 122.32601 35820 ft 450 kts 346°
2026-04-23 09:34 12.01001 122.31270 35815 ft 450 kts 346°
2026-04-23 09:35 12.07155 122.29932 35812 ft 450 kts 346°
2026-04-23 09:35 12.10656 122.29169 35812 ft 450 kts 346°